Weather History for Alexandria, MN

Change the Weather History Date:

Friday, March 15, 2013

  Actual Average Record
Temperature  
Mean Temperature 26 °F -  
Max Temperature 30 °F 36 °F 63 °F (2012)
Min Temperature 21 °F 17 °F -13 °F (1997)
Degree Days  
Heating Degree Days 38    
Moisture  
Dew Point 24 °F    
Average Humidity 87    
Maximum Humidity 93    
Minimum Humidity 82    
Precipitation  
Precipitation 0.11 in - - ()
Sea Level Pressure  
Sea Level Pressure 29.93 in    
Wind  
Wind Speed 9 mph (NE)    
Max Wind Speed 13 mph    
Max Gust Speed 20 mph    
Visibility 3 miles    
Events Fog , Rain , Snow    
Averages and records for this station are not official NWS values.
T = Trace of Precipitation, MM = Missing Value Source: NWS Daily Summary

Daily Weather History Graph

Daily Weather History Graph

Search for Another Location

Airport:

Trip Planner

Search our weather history database for the weather conditions in past years. The results will help you decide how hot, cold, wet, or windy it might be!

Date:

Astronomy

Mar. 15, 2013 Rise Set
Actual Time 7:33 AM CDT 7:27 PM CDT
Civil Twilight 7:04 AM CDT 7:57 PM CDT
Nautical Twilight 6:29 AM CDT 8:32 PM CDT
Astronomical Twilight 5:54 AM CDT 9:07 PM CDT
Moon 9:10 AM CDT (3/15) 11:58 PM CDT (3/15)
Length of Visible Light 12h 53m
Length of Day
11h 54m
Waxing Crescent, 15% of the Moon is Illuminated
Mar 15
Waxing Crescent
Mar 19
First Quarter
Mar 27
Full
Apr 2
Last Quarter
Apr 10
New

Hourly Weather History & Observations

Time (CDT) Temp. Windchill Dew Point Humidity Pressure Visibility Wind Dir Wind Speed Gust Speed Precip Events Conditions
12:53 AM 28.0 °F 20.0 °F 24.1 °F 85% 30.03 in 6.0 mi North 8.1 mph - N/A   Mostly Cloudy
1:22 AM 28.4 °F 21.2 °F 24.8 °F 86% 29.99 in 6.0 mi NW 6.9 mph - N/A   Mostly Cloudy
1:53 AM 28.0 °F 20.8 °F 24.1 °F 85% 30.06 in 6.0 mi NNW 6.9 mph - N/A   Overcast
2:53 AM 28.0 °F 20.8 °F 24.1 °F 85% 30.06 in 5.0 mi NNW 6.9 mph - N/A   Overcast
3:39 AM 28.4 °F 18.5 °F 24.8 °F 86% 29.98 in 4.0 mi NNE 11.5 mph - 0.00 in Rain Light Freezing Rain
4:53 AM 28.9 °F 20.4 °F 26.1 °F 89% 29.99 in 4.0 mi NE 9.2 mph - 0.01 in Rain Light Freezing Rain
5:45 AM 28.4 °F 22.2 °F 26.6 °F 93% 29.94 in 4.0 mi NE 5.8 mph - 0.01 in Rain Light Freezing Rain
5:53 AM 30.0 °F 23.2 °F 27.0 °F 88% 30.01 in 3.0 mi NNE 6.9 mph - 0.01 in Rain Light Freezing Rain
6:15 AM 30.2 °F - 26.6 °F 86% 29.97 in 2.5 mi Calm Calm - 0.02 in Snow Light Snow
6:21 AM 28.4 °F 23.3 °F 26.6 °F 93% 29.96 in 1.2 mi NE 4.6 mph - 0.03 in Snow Light Snow
6:44 AM 28.4 °F 20.4 °F 26.6 °F 93% 29.95 in 1.5 mi NE 8.1 mph - 0.04 in Snow Light Snow
6:50 AM 28.4 °F 19.7 °F 26.6 °F 93% 29.95 in 1.2 mi NE 9.2 mph - 0.04 in Snow Light Snow
6:51 AM 28.9 °F 19.8 °F 26.1 °F 89% 30.00 in 1.2 mi NE 10.4 mph - 0.04 in Snow Light Snow
7:13 AM 28.4 °F 19.7 °F 26.6 °F 93% 29.94 in 1.8 mi NE 9.2 mph - 0.00 in Snow Light Snow
7:16 AM 28.4 °F 19.7 °F 26.6 °F 93% 29.94 in 2.0 mi NE 9.2 mph - 0.00 in Snow Light Snow
7:28 AM 28.4 °F 18.0 °F 26.6 °F 93% 29.93 in 2.0 mi NE 12.7 mph - 0.01 in Snow Light Snow
7:53 AM 28.0 °F 18.6 °F 25.0 °F 88% 30.00 in 2.0 mi NE 10.4 mph - 0.01 in Snow Light Snow
8:00 AM 28.4 °F 19.1 °F 24.8 °F 86% 29.94 in 1.8 mi NNE 10.4 mph - 0.00 in Snow Light Snow
8:21 AM 28.4 °F 18.0 °F 24.8 °F 86% 29.93 in 1.0 mi NE 12.7 mph - 0.00 in Snow Light Snow
8:42 AM 28.4 °F 19.7 °F 24.8 °F 86% 29.93 in 1.8 mi NE 9.2 mph - 0.01 in   Overcast
8:48 AM 28.4 °F 19.1 °F 24.8 °F 86% 29.94 in 2.0 mi NE 10.4 mph - 0.01 in   Overcast
8:53 AM 28.0 °F 19.3 °F 25.0 °F 88% 30.00 in 2.5 mi NE 9.2 mph - 0.01 in   Overcast
9:01 AM 28.4 °F 19.1 °F 24.8 °F 86% 29.93 in 3.0 mi NE 10.4 mph - N/A   Overcast
9:09 AM 28.4 °F 18.0 °F 24.8 °F 86% 29.93 in 3.0 mi NE 12.7 mph - N/A   Overcast
9:42 AM 28.4 °F 19.1 °F 24.8 °F 86% 29.93 in 2.0 mi NE 10.4 mph - 0.00 in Snow Light Snow
9:49 AM 28.4 °F 19.1 °F 24.8 °F 86% 29.93 in 1.8 mi NE 10.4 mph 19.6 mph 0.00 in Snow Light Snow
9:53 AM 28.0 °F 19.3 °F 25.0 °F 88% 29.99 in 2.0 mi NE 9.2 mph 19.6 mph 0.00 in Snow Light Snow
10:13 AM 28.4 °F 18.0 °F 24.8 °F 86% 29.93 in 4.0 mi NE 12.7 mph - 0.00 in   Overcast
10:53 AM 28.0 °F 19.3 °F 24.1 °F 85% 29.99 in 3.0 mi ENE 9.2 mph - 0.00 in   Overcast
11:53 AM 28.9 °F 19.2 °F 24.1 °F 82% 29.98 in 2.5 mi NE 11.5 mph - N/A   Haze
12:00 PM 28.4 °F 18.0 °F 24.8 °F 86% 29.92 in 5.0 mi NE 12.7 mph - N/A   Haze
12:53 PM 28.9 °F 20.4 °F 24.1 °F 82% 29.99 in 8.0 mi ENE 9.2 mph - N/A   Overcast
1:51 PM 28.4 °F 18.5 °F 24.8 °F 86% 29.89 in 10.0 mi East 11.5 mph - N/A   Overcast
1:53 PM 28.9 °F 18.6 °F 24.1 °F 82% 29.95 in 10.0 mi East 12.7 mph - N/A   Overcast
2:53 PM 28.9 °F 19.2 °F 24.1 °F 82% 29.93 in 8.0 mi East 11.5 mph - N/A   Overcast
3:18 PM 28.4 °F 18.0 °F 24.8 °F 86% 29.85 in 2.0 mi East 12.7 mph - 0.00 in Snow Light Snow
3:42 PM 28.4 °F 18.0 °F 24.8 °F 86% 29.84 in 2.0 mi East 12.7 mph - 0.00 in Snow Light Snow
3:53 PM 28.0 °F 17.5 °F 24.1 °F 85% 29.89 in 1.2 mi East 12.7 mph - 0.00 in Snow Light Snow
4:04 PM 28.4 °F 18.5 °F 24.8 °F 86% 29.83 in 0.8 mi East 11.5 mph - 0.00 in Snow Light Snow
4:13 PM 28.4 °F 19.1 °F 24.8 °F 86% 29.85 in 0.5 mi ENE 10.4 mph - 0.00 in Fog , Snow Snow
4:33 PM 28.4 °F 19.7 °F 24.8 °F 86% 29.86 in 0.2 mi ENE 9.2 mph - 0.02 in Fog , Snow Snow
4:45 PM 28.4 °F 21.2 °F 24.8 °F 86% 29.86 in 0.8 mi NE 6.9 mph - 0.03 in Snow Light Snow
5:13 PM 28.4 °F 18.0 °F 24.8 °F 86% 29.85 in 0.8 mi ENE 12.7 mph - 0.00 in Snow Light Snow
5:27 PM 28.4 °F 18.5 °F 24.8 °F 86% 29.86 in 0.2 mi NE 11.5 mph - 0.01 in Fog , Snow Snow
5:39 PM 28.4 °F 19.1 °F 24.8 °F 86% 29.86 in 0.2 mi NE 10.4 mph - 0.01 in Fog , Snow Snow
5:53 PM 27.0 °F 16.1 °F 24.1 °F 89% 29.91 in 0.5 mi ENE 12.7 mph - 0.02 in Fog , Snow Light Snow
6:34 PM 26.6 °F 17.5 °F 24.8 °F 93% 29.87 in 1.0 mi NNE 9.2 mph - 0.01 in Snow Light Snow
6:47 PM 26.6 °F 16.2 °F 23.0 °F 86% 29.86 in 2.0 mi NE 11.5 mph - 0.01 in Snow Light Snow
6:48 PM 26.1 °F 16.2 °F 23.0 °F 88% 29.92 in 2.0 mi NE 10.4 mph - 0.01 in Snow Light Snow
6:56 PM 26.6 °F 16.2 °F 23.0 °F 86% 29.86 in 3.0 mi ENE 11.5 mph - 0.00 in   Overcast
7:29 PM 24.8 °F 14.0 °F 21.2 °F 86% 29.86 in 10.0 mi ENE 11.5 mph 17.3 mph 0.00 in   Overcast
7:42 PM 24.8 °F 14.0 °F 21.2 °F 86% 29.87 in 10.0 mi NE 11.5 mph - 0.00 in   Overcast
7:53 PM 25.0 °F 14.2 °F 21.0 °F 85% 29.94 in 8.0 mi NE 11.5 mph - 0.00 in   Overcast
8:37 PM 24.8 °F 13.4 °F 21.2 °F 86% 29.89 in 4.0 mi NE 12.7 mph - N/A   Overcast
8:53 PM 24.1 °F 12.5 °F 19.9 °F 84% 29.96 in 5.0 mi ENE 12.7 mph - N/A   Overcast
9:53 PM 23.0 °F 13.9 °F 19.9 °F 88% 29.99 in 9.0 mi NE 8.1 mph - 0.00 in   Overcast
10:53 PM 23.0 °F 17.0 °F 19.9 °F 88% 30.00 in 8.0 mi NE 4.6 mph - N/A   Overcast
11:53 PM 21.9 °F 11.7 °F 19.0 °F 89% 30.01 in 4.0 mi NNE 9.2 mph - N/A   Overcast